Theta_e
321 321 321 320 321 321 321 320 321 321 321 321 321 321 321 321 321 321 321 321 321 321 321 322 324 327 322 313 312 336 369 367 358 351 342 337 333 326 322 323 325 319 320 324 327 328 328
320 321 321 321 321 321 321 321 321 321 321 321 321 320 320 320 321 321 321 320 319 320 321 322 325 330 316 304 316 343 352 353 345 342 333 336 330 329 323 321 321 322 321 322 322 323 327
321 321 321 321 321 321 321 321 321 321 321 320 320 320 320 320 320 320 320 319 318 319 320 323 326 330 320 312 323 336 340 339 334 337 330 332 331 325 324 323 329 324 317 319 320 321 322
322 321 321 321 321 321 321 321 320 320 320 320 320 319 319 319 319 319 318 317 317 319 322 324 328 323 311 323 322 330 329 323 324 331 331 332 330 322 325 327 327 321 318 313 321 322 326
322 322 322 321 321 321 320 320 320 319 319 319 319 319 319 318 318 317 316 316 319 322 324 327 320 315 310 329 316 319 324 323 323 321 321 331 326 317 320 317 316 316 308 313 317 327 325
322 322 321 321 321 321 320 320 319 319 318 318 318 317 317 317 316 315 315 316 318 321 325 328 328 311 312 315 314 316 314 318 316 320 320 319 317 309 314 312 305 311 311 314 313 320 323
320 322 322 321 321 320 320 319 319 319 318 318 317 317 316 316 315 314 310 310 309 309 317 313 309 312 312 316 317 316 317 311 310 315 311 315 310 306 309 317 319 317 314 315 319 322 320
322 321 322 321 321 320 320 319 319 318 318 318 317 316 316 315 314 313 307 310 311 310 304 313 318 317 315 316 312 312 312 308 307 305 311 310 306 312 313 318 319 316 313 314 320 321 321
322 322 321 321 320 320 319 319 318 318 317 317 316 316 315 313 312 310 308 309 313 312 303 309 312 312 315 317 313 311 311 306 307 305 307 308 312 315 314 316 315 314 312 312 315 318 322
322 321 321 319 319 319 319 318 318 317 317 316 316 315 314 311 309 308 307 309 307 311 298 304 305 310 311 312 307 317 313 308 304 304 304 306 315 313 315 315 314 307 318 318 317 314 307
322 321 321 320 319 319 318 318 317 317 316 316 316 315 312 310 303 307 309 313 311 310 292 311 305 314 309 308 306 308 312 307 304 305 302 302 304 304 305 315 317 313 320 318 317 314 311
322 322 321 320 319 318 318 317 317 316 315 315 314 313 312 308 304 310 314 313 306 299 295 306 308 304 304 302 306 308 308 306 308 304 301 303 306 305 304 308 311 318 317 316 313 309 299
323 322 321 319 318 317 317 316 316 315 315 314 312 310 309 310 305 311 310 304 297 292 307 304 303 303 300 300 302 305 302 299 298 293 292 299 301 303 305 300 303 306 306 296 300 296 297
322 321 320 318 316 317 317 317 316 315 314 312 309 308 309 310 308 311 306 298 291 302 302 305 305 303 302 302 301 303 300 298 299 296 292 291 292 298 304 301 300 300 298 293 289 290 299
321 320 319 318 315 316 317 316 315 314 313 311 308 304 306 312 313 311 300 291 293 297 302 302 302 298 297 302 300 299 299 299 302 298 294 290 293 302 303 303 304 299 296 300 294 291 297
320 319 318 316 315 316 316 316 315 314 313 310 302 302 307 317 315 303 296 292 295 301 304 302 297 300 297 300 301 295 296 303 302 302 299 296 291 299 304 302 302 302 302 295 291 289 287
319 318 318 317 316 316 316 316 314 313 312 310 301 303 311 315 309 300 291 292 300 306 305 302 301 298 299 299 299 298 298 306 306 304 300 295 294 299 299 297 299 297 296 294 293 292 288
319 318 317 317 316 316 315 315 314 312 310 305 299 300 312 311 301 297 295 299 304 306 309 305 303 302 299 301 297 297 301 305 311 305 300 300 294 293 297 302 302 300 301 295 290 289 289
318 318 317 317 316 316 316 315 313 312 310 303 296 300 313 306 293 294 298 301 304 303 304 305 304 304 303 299 298 301 306 313 314 309 302 301 293 294 297 297 298 296 295 294 291 289 288
318 317 317 317 316 316 316 315 313 312 311 302 300 299 301 303 299 296 295 296 298 305 303 304 303 304 304 301 300 300 306 311 313 314 324 311 293 296 296 295 298 296 298 296 294 288 289
315 315 316 316 317 317 317 315 314 312 311 305 302 297 299 293 295 296 294 296 298 298 303 303 301 305 302 298 301 302 305 306 310 316 310 302 295 295 297 299 305 303 301 300 295 294 293
315 316 316 316 316 316 317 316 315 313 310 305 298 296 298 295 295 294 294 293 298 300 299 301 300 304 304 298 299 299 301 300 301 306 304 303 300 296 297 304 304 303 304 304 302 298 294
316 316 316 316 316 317 317 316 315 313 308 299 301 302 298 295 294 293 292 297 300 301 302 305 303 301 300 302 302 303 303 304 304 300 301 300 299 297 294 300 302 298 303 302 300 300 301
316 316 316 316 316 316 317 316 316 314 311 302 300 299 295 292 295 296 298 299 299 300 299 303 302 299 304 308 304 301 301 302 303 305 303 300 298 297 295 295 291 301 306 308 304 304 301
316 316 316 316 316 316 316 316 316 316 314 304 303 300 296 291 296 297 298 298 299 299 299 302 304 304 306 301 296 294 295 298 302 306 304 306 304 300 297 293 299 306 309 309 302 301 305
315 315 315 316 316 316 316 316 316 315 314 305 304 303 300 294 291 299 296 297 293 294 295 300 304 306 303 297 294 288 289 294 295 303 310 309 308 304 299 295 294 304 313 316 307 301 318
315 315 315 315 316 316 316 316 316 316 314 307 304 306 303 296 295 297 293 294 297 295 292 296 298 299 303 296 292 290 291 299 293 296 299 300 302 300 301 297 302 310 314 317 299 308 321
315 315 315 315 315 316 316 316 316 316 316 308 303 306 303 299 297 301 302 297 297 295 291 295 296 296 296 293 295 295 295 297 296 297 299 299 297 299 300 298 296 313 313 313 317 323 324
314 315 315 315 315 315 315 315 316 316 316 313 299 305 308 304 298 305 306 307 305 303 296 295 294 293 297 293 294 294 294 298 300 298 306 300 304 302 303 303 313 317 313 316 318 325 328
Wind_Speed
18 19 19 20 18 19 20 22 22 21 22 22 23 23 22 23 23 22 21 21 21 20 18 16 13 11 3 2 11 3 11 11 10 7 6 5 3 4 3 3 8 13 8 8 8 10 9
18 19 19 20 19 20 20 21 22 22 22 22 22 23 23 23 23 23 22 20 21 19 17 14 11 7 1 3 7 10 11 7 4 6 6 7 4 5 4 5 5 5 11 10 9 7 9
17 18 19 19 20 20 21 21 22 22 23 23 23 24 24 24 24 23 23 23 22 20 16 12 8 3 1 16 1 7 11 10 6 7 4 5 4 4 4 4 4 11 7 5 6 8 6
16 17 18 18 19 20 21 21 22 23 23 24 24 25 25 25 26 25 24 24 23 20 15 11 6 2 8 7 5 4 5 3 6 6 5 9 8 7 2 2 5 5 6 4 1 5 2
16 17 17 18 19 20 20 21 22 22 23 24 25 25 26 26 25 25 26 27 23 14 6 3 3 3 11 11 6 10 10 8 5 5 6 10 2 3 5 6 3 5 5 4 3 10 4
15 16 17 18 19 20 20 21 22 22 24 25 26 26 27 27 26 25 27 24 7 3 3 5 4 3 5 6 5 5 8 9 5 4 5 2 4 4 4 4 5 6 5 4 3 8 14
18 17 17 19 19 20 21 22 23 24 24 26 27 27 28 29 26 23 15 4 6 5 1 8 7 6 5 3 1 5 6 4 3 4 6 5 2 6 11 9 4 5 5 4 4 8 7
15 19 17 19 20 21 22 23 24 25 25 26 27 27 29 31 30 25 2 3 5 4 9 11 14 13 19 5 7 7 8 7 6 7 2 1 9 9 8 10 7 6 6 4 4 10 9
16 16 17 18 20 21 22 23 24 25 25 26 27 27 28 33 34 1 2 6 9 6 2 9 9 9 11 10 9 12 10 5 5 5 5 9 15 7 8 6 10 7 12 6 4 8 10
15 17 17 21 20 21 22 23 24 25 26 26 27 26 26 32 4 6 6 7 8 3 5 10 4 8 6 9 6 9 9 8 2 9 6 8 12 8 4 7 9 6 11 15 9 4 4
14 15 18 19 19 21 22 23 25 26 26 27 28 26 23 10 6 4 7 9 9 7 4 3 3 3 4 10 4 5 5 6 9 9 7 13 6 7 6 14 12 16 22 23 15 11 6
13 14 17 17 19 21 22 24 25 27 29 29 29 27 21 1 2 11 11 11 5 7 5 4 4 5 6 4 6 2 4 3 7 6 2 11 5 6 9 8 10 18 14 11 5 5 3
12 14 16 16 18 21 23 24 26 28 29 31 33 31 12 4 7 2 5 5 6 4 7 9 1 3 4 7 5 6 4 4 7 4 5 8 11 6 5 6 2 7 13 4 2 2 8
11 14 14 16 23 21 22 24 26 28 30 33 35 31 5 7 5 3 4 7 2 4 3 4 9 3 7 7 7 8 5 5 5 5 5 6 11 4 5 9 10 6 11 8 7 9 6
11 12 14 16 22 20 22 24 26 29 32 36 30 5 4 6 8 3 7 4 8 4 4 9 11 4 4 4 1 3 9 10 12 10 10 7 12 6 4 6 10 9 3 9 7 5 4
10 12 13 17 21 20 21 24 26 28 31 35 6 5 5 5 9 6 6 5 5 3 7 3 0 4 1 3 6 3 4 7 8 13 8 10 6 6 14 2 3 9 5 1 4 3 4
11 11 12 14 17 19 21 23 25 27 31 28 3 5 6 6 6 6 3 7 6 8 4 4 9 6 4 2 2 1 4 10 10 9 11 7 6 17 2 6 11 1 2 4 7 6 7
12 14 15 16 17 18 21 23 24 25 27 9 5 2 3 3 4 1 1 4 5 12 14 6 7 8 2 3 1 3 5 5 9 4 9 15 9 9 15 10 8 10 16 9 8 6 3
13 14 15 16 17 19 21 23 24 24 15 4 3 5 6 6 4 5 8 7 4 10 7 7 6 4 1 3 4 4 7 9 10 5 7 7 5 9 12 8 4 5 5 7 6 5 7
13 14 15 16 18 19 21 23 24 27 23 4 2 6 7 7 3 3 6 6 9 9 6 4 5 5 8 9 5 5 13 8 16 10 23 3 6 11 13 11 4 4 4 5 8 5 6
14 15 16 16 18 19 20 23 25 29 30 3 3 2 1 6 6 6 3 4 10 11 11 9 6 13 5 8 7 8 7 9 16 11 16 7 5 6 8 6 5 3 9 8 8 9 8
13 13 15 16 17 18 20 21 23 28 27 5 4 5 6 5 5 7 6 6 10 20 5 9 7 10 8 7 1 7 5 4 6 11 10 8 7 6 4 5 0 3 7 10 14 6 4
12 12 13 14 16 17 18 18 19 21 14 4 4 4 4 5 6 4 2 7 11 13 6 9 8 6 6 8 6 10 7 8 9 3 6 3 4 8 7 3 5 5 8 5 6 6 10
12 14 14 15 15 15 15 16 16 15 10 1 3 2 3 5 3 4 10 11 11 12 7 9 8 6 10 17 6 5 7 8 8 11 8 6 2 3 6 5 5 11 4 8 8 7 8
13 13 14 14 15 15 14 14 14 13 12 2 3 3 2 4 5 7 13 7 9 10 7 7 7 6 13 6 6 8 7 7 8 11 6 5 4 2 0 2 6 8 5 6 4 11 3
12 13 13 14 14 14 14 13 11 10 11 2 3 2 1 1 2 6 5 7 4 8 7 5 12 12 6 2 3 3 3 3 6 8 6 7 7 6 3 2 4 8 6 7 2 4 6
11 12 13 14 14 14 13 12 11 10 9 2 4 2 2 3 4 4 2 4 5 5 4 5 12 11 7 4 1 4 5 3 3 4 4 4 2 3 3 4 8 9 8 7 7 8 6
11 11 12 12 12 13 13 13 11 10 8 3 5 4 2 3 7 5 1 2 5 2 1 7 9 7 5 7 4 4 1 3 2 4 3 3 3 4 2 2 8 5 4 6 6 2 2
11 11 11 12 13 13 12 12 11 10 8 2 3 3 3 3 7 6 15 16 13 17 4 3 3 1 4 4 5 3 3 4 4 4 6 2 2 5 8 8 6 6 5 6 5 7 1
Wind_Direction
10 7 5 3 356 354 354 354 349 345 340 339 335 331 329 327 328 326 324 319 316 314 315 316 320 327 325 33 252 157 125 136 129 153 183 186 195 221 284 8 13 121 129 126 132 129 152
7 5 2 358 355 353 353 351 347 343 337 335 332 329 328 326 325 324 322 316 312 310 309 309 311 321 208 242 245 146 132 142 182 171 156 186 220 246 260 205 119 169 132 142 141 160 164
3 1 359 355 353 350 350 346 344 339 336 336 332 330 327 325 323 323 319 313 311 305 301 297 293 248 264 234 267 131 151 181 199 168 172 222 199 221 338 42 306 157 128 130 151 168 163
358 355 355 350 351 348 347 344 343 338 335 333 332 330 328 326 323 322 316 312 307 297 292 274 244 205 249 251 200 183 207 249 251 191 203 242 159 273 164 140 43 57 50 109 301 171 186
358 352 349 348 349 346 343 343 340 337 334 332 332 330 327 324 323 320 315 310 301 285 227 159 139 165 266 306 182 211 171 205 210 266 259 270 91 203 39 92 32 23 131 86 59 34 70
352 352 348 348 346 343 340 341 337 335 334 332 332 331 328 324 324 322 317 305 274 312 157 179 259 357 279 248 236 199 176 191 175 199 324 274 52 83 39 76 199 206 129 156 124 7 53
353 348 345 346 343 338 339 338 336 334 333 333 333 332 328 325 324 324 337 10 14 19 111 205 196 242 274 253 211 224 199 159 113 103 191 261 98 214 208 207 180 155 121 110 158 102 85
343 348 345 343 339 337 337 334 333 333 333 332 331 333 329 325 324 326 146 40 232 234 296 234 238 237 261 56 315 278 102 151 132 220 203 1 238 214 198 204 176 151 128 163 300 143 96
340 338 339 338 336 336 335 331 329 330 331 330 330 331 331 323 321 331 233 237 275 329 327 287 209 201 232 140 220 246 134 169 183 187 195 192 237 167 220 245 151 222 174 149 102 63 64
336 331 336 342 338 336 333 331 330 329 329 329 327 330 334 329 9 328 288 284 330 90 46 277 223 247 203 155 296 216 167 141 136 200 212 228 256 227 178 179 150 217 185 148 105 74 192
328 327 329 339 339 335 333 331 329 328 327 328 327 329 330 322 296 311 261 339 326 57 7 173 209 179 152 147 195 299 147 85 192 207 109 252 237 234 167 215 184 233 167 173 170 176 105
325 329 327 337 339 336 334 331 330 330 330 328 322 322 330 158 221 243 306 309 48 49 270 321 148 171 103 209 248 292 157 121 189 189 159 240 255 164 227 228 193 242 163 172 72 53 356
328 329 327 337 338 337 335 333 333 331 329 326 322 317 311 232 228 328 321 37 46 147 305 330 304 208 168 192 234 159 222 180 171 137 291 293 279 276 208 267 328 124 125 112 264 29 236
328 323 336 343 345 337 334 334 333 332 330 327 322 313 221 212 240 334 34 56 154 265 294 326 357 20 178 168 229 190 179 208 240 128 135 203 297 218 239 182 214 179 164 154 192 169 215
340 344 346 345 346 336 335 336 336 336 333 326 322 319 279 253 197 120 72 85 208 230 15 349 331 125 298 312 323 125 186 194 199 166 167 169 257 302 234 239 144 257 132 187 124 93 101
351 353 348 350 346 342 339 338 339 338 334 326 318 333 271 260 131 71 73 235 255 308 334 31 89 298 6 344 6 50 220 223 215 190 163 215 280 216 266 25 269 162 182 144 360 144 228
351 355 347 346 344 343 341 340 340 340 337 329 8 15 270 112 77 53 145 239 296 273 310 313 289 252 252 65 283 247 243 302 221 228 162 149 140 267 133 189 231 132 176 77 120 136 161
3 352 350 353 346 346 344 343 344 343 342 22 350 36 267 57 48 53 181 230 271 296 307 289 213 216 147 66 339 312 253 223 319 228 166 201 165 231 237 251 217 176 198 145 129 251 205
6 358 353 352 349 346 346 346 346 342 8 331 354 277 309 77 67 346 312 299 307 4 324 9 332 10 356 66 25 311 329 317 353 272 215 189 223 241 285 344 14 193 189 157 115 76 204
1 355 354 351 347 347 346 347 346 342 347 121 30 1 334 28 92 36 344 300 330 312 290 354 272 342 15 4 21 354 349 325 333 353 5 191 153 169 223 213 173 335 232 170 137 122 206
356 352 349 349 349 349 350 350 350 348 345 110 37 347 29 327 333 333 305 277 332 359 344 349 3 9 338 33 10 359 342 321 331 10 359 32 201 162 214 189 170 196 252 230 166 199 158
353 351 349 347 348 350 354 356 357 354 343 63 52 25 346 295 303 350 351 355 351 340 332 339 5 349 37 102 75 308 329 341 274 334 349 343 320 354 258 171 327 299 293 264 226 182 212
338 343 342 346 349 353 354 357 2 6 7 40 327 326 102 286 333 13 12 341 344 353 292 353 330 334 8 2 308 259 241 248 240 228 319 296 20 8 282 19 30 341 256 265 214 188 178
346 346 347 348 348 350 354 356 4 9 29 112 277 339 51 283 348 357 324 338 335 332 283 323 6 27 315 314 294 302 249 253 262 271 179 253 335 140 260 43 248 244 266 246 226 222 189
342 343 345 346 348 349 350 355 3 4 8 51 293 22 37 304 324 313 347 318 322 342 345 295 1 287 294 310 15 3 338 359 294 246 242 181 126 317 226 202 272 308 353 359 324 275 254
342 341 341 345 344 344 344 342 352 1 358 14 287 333 356 12 222 25 314 3 350 339 332 297 333 319 351 79 84 189 218 345 305 319 62 76 66 124 28 81 237 233 293 315 113 278 327
332 338 343 343 340 341 333 332 341 347 353 13 280 325 307 269 275 69 335 307 301 338 284 328 336 333 17 7 98 178 239 248 250 283 2 336 12 170 189 228 282 252 301 306 72 244 343
325 330 333 331 337 334 337 338 332 333 335 33 275 280 174 252 276 221 218 336 329 344 333 307 345 353 345 34 23 319 309 256 266 219 217 234 191 206 137 140 273 244 314 96 219 344 358
314 315 319 331 336 333 330 333 333 330 318 30 281 308 338 233 253 295 279 263 247 245 195 289 243 330 264 36 14 328 329 326 333 292 335 207 282 258 176 213 252 282 252 198 208 122 356